Location: Caltech
(34.1382°N, 118.1253°W)
Time: 23:54:45
(UTC-07:00)

Iridium 12 - Visible Passes

Search period start: 17 August 2017 00:00
Search period end: 27 August 2017 00:00
Orbit: 776 x 779 km, 86.4° (Epoch: 17 August)

Date Brightness Start Highest point End Pass type
(mag) Time Alt. Az. Time Alt. Az. Time Alt. Az.
17 Aug 8.3 01:39:18 13° NNW 01:39:18 13° NNW 01:39:49 10° NNW visible
18 Aug 8.3 01:05:55 14° N 01:05:55 14° N 01:06:38 10° N visible
19 Aug 8.3 00:32:32 13° NNE 00:32:32 13° NNE 00:33:03 10° N visible
21 Aug 8.4 01:06:14 12° NNW 01:06:14 12° NNW 01:06:33 10° N visible
22 Aug 8.4 00:32:50 12° N 00:32:50 12° N 00:33:13 10° N visible
22 Aug 8.4 23:59:26 10° NNE 23:59:26 10° NNE 23:59:29 10° NNE visible
25 Aug 8.5 00:33:05 11° N 00:33:05 11° N 00:33:14 10° N visible
25 Aug 8.5 23:59:40 10° N 23:59:40 10° N 23:59:44 10° N visible
